This demonstration page uses our WeatherBlox Daily Observations layout. Learn more.

Left ArrowRight Arrow

Hourly Observations for April 28, 2017

Temp ( °F °C ) Dew Point ( °F °C ) Humidity (%) Winds ( mph kmh ) Pressure ( in mb ) Visibility ( mi km ) Precip ( " mm )
12:15 am 00:15 Cloudy 46 8 39 4 76 76 E 10 17 29.74 1007 10 16 0.00 0.00
12:35 am 00:35 Cloudy 46 8 39 4 76 76 E 12 19 29.74 1007 10 16 0.00 0.00
12:55 am 00:55 Cloudy 46 8 39 4 76 76 E 13 20 29.74 1007 10 16 0.00 0.00
1:15 am 01:15 Cloudy 46 8 39 4 76 76 E 13 20 29.71 1006 10 16 0.00 0.00
1:35 am 01:35 Cloudy 46 8 39 4 76 76 E 13 20 29.71 1006 10 16 0.00 0.00
1:55 am 01:55 Cloudy 46 8 39 4 76 76 E 12 19 29.71 1006 10 16 0.00 0.00
2:15 am 02:15 Cloudy 46 8 39 4 76 76 E 13 20 29.71 1006 10 16 0.00 0.00
2:35 am 02:35 Cloudy 45 7 39 4 81 81 E 13 20 29.71 1006 10 16 0.00 0.00
2:55 am 02:55 Cloudy 45 7 41 5 87 87 E 10 17 29.71 1006 8 13 0.02 0.51
3:15 am 03:15 Cloudy 45 7 41 5 87 87 E 12 19 29.71 1006 9 14 0.00 0.00
3:35 am 03:35 Cloudy 45 7 41 5 87 87 E 13 20 29.71 1006 8 13 0.11 2.79
3:55 am 03:55 Cloudy 45 7 41 5 87 87 E 13 20 29.68 1005 7 11 0.16 4.06
4:15 am 04:15 Cloudy 45 7 41 5 87 87 E 15 24 29.68 1005 7 11 0.00 0.00
4:35 am 04:35 Cloudy 45 7 41 5 87 87 E 15 24 29.68 1005 7 11 0.13 3.30
4:55 am 04:55 Mostly Cloudy 45 7 41 5 87 87 E 15 24 29.68 1005 7 11 0.17 4.32
5:15 am 05:15 Mostly Cloudy 45 7 41 5 87 87 E 13 20 29.68 1005 7 11 0.00 0.00
5:35 am 05:35 Cloudy 45 7 41 5 87 87 E 14 22 29.68 1005 5 8 0.11 2.79
5:55 am 05:55 Cloudy 45 7 39 4 81 81 E 18 30 29.68 1005 7 11 0.14 3.56
6:15 am 06:15 Mostly Cloudy 45 7 39 4 81 81 ENE 16 26 29.68 1005 8 13 0.00 0.00
6:35 am 06:35 Cloudy 45 7 39 4 81 81 ENE 15 24 29.68 1005 8 13 0.04 1.02
6:55 am 06:55 Mostly Cloudy 45 7 39 4 81 81 ENE 15 24 29.68 1005 7 11 0.05 1.27
7:15 am 07:15 Cloudy 45 7 39 4 81 81 NE 17 28 29.68 1005 4 6 0.00 0.00
7:35 am 07:35 Cloudy 43 6 37 3 81 81 NE 18 30 29.71 1006 3 5 0.03 0.76
7:55 am 07:55 Cloudy 43 6 37 3 81 81 NE 23 37 29.71 1006 3 5 0.06 1.52
8:15 am 08:15 Cloudy 41 5 37 3 87 87 NE 24 39 29.74 1007 3 5 0.00 0.00
8:35 am 08:35 Cloudy 41 5 37 3 87 87 NE 22 35 29.74 1007 5 8 0.02 0.51
8:55 am 08:55 Cloudy 41 5 37 3 87 87 NE 24 39 29.74 1007 5 8 0.02 0.51
9:15 am 09:15 Cloudy 39 4 36 2 87 87 ENE 28 44 29.74 1007 5 8 0.00 0.00
9:35 am 09:35 Cloudy 39 4 36 2 87 87 NE 24 39 29.77 1008 5 8 0.02 0.51
9:55 am 09:55 Cloudy 39 4 36 2 87 87 NE 24 39 29.77 1008 7 11 0.02 0.51
10:15 am 10:15 Cloudy 37 3 34 1 87 87 NE 23 37 29.77 1008 5 8 0.00 0.00
10:35 am 10:35 Cloudy 37 3 34 1 87 87 NE 22 35 29.80 1009 5 8 0.02 0.51
10:55 am 10:55 Cloudy 37 3 34 1 87 87 NE 23 37 29.80 1009 4 6 0.03 0.76
11:15 am 11:15 Cloudy 37 3 34 1 87 87 NE 17 28 29.83 1010 3 5 0.00 0.00
11:35 am 11:35 Cloudy 36 2 32 0 87 87 NE 15 24 29.85 1011 3 4 0.02 0.51
11:55 am 11:55 Cloudy 36 2 32 0 87 87 NE 15 24 29.85 1011 2 3 0.05 1.27
12:15 pm 12:15 Cloudy 34 1 30 -1 87 87 NE 14 22 29.88 1012 2 3 0.00 0.00
12:35 pm 12:35 Cloudy 34 1 30 -1 87 87 NNE 12 19 29.88 1012 3 4 0.03 0.76
12:55 pm 12:55 Cloudy 34 1 30 -1 87 87 NNE 14 22 29.88 1012 3 4 0.04 1.02
1:15 pm 13:15 Cloudy 34 1 30 -1 87 87 NNE 13 20 29.91 1013 3 5 0.03 0.76
1:35 pm 13:35 Cloudy 34 1 30 -1 87 87 NNE 14 22 29.91 1013 4 6 0.05 1.27
1:55 pm 13:55 Cloudy 36 2 30 -1 81 81 NNE 16 26 29.91 1013 7 11 0.08 2.03
2:15 pm 14:15 Cloudy 36 2 32 0 87 87 NNE 18 30 29.91 1013 5 8 0.00 0.00
2:35 pm 14:35 Cloudy 36 2 34 1 93 93 NNE 21 33 29.91 1013 4 6 0.02 0.51
2:55 pm 14:55 Cloudy 37 3 34 1 87 87 NNE 22 35 29.91 1013 3 5 0.02 0.51
3:15 pm 15:15 Cloudy 37 3 34 1 87 87 NNE 20 31 29.94 1014 4 6 0.00 0.00
3:35 pm 15:35 Cloudy 37 3 34 1 87 87 NNE 21 33 29.94 1014 3 5 0.00 0.00
3:55 pm 15:55 Cloudy 37 3 34 1 87 87 NNE 20 31 29.94 1014 3 4 0.00 0.00
4:15 pm 16:15 Cloudy 37 3 34 1 87 87 NNE 22 35 29.94 1014 3 5 0.00 0.00
4:35 pm 16:35 Cloudy 37 3 34 1 87 87 NNE 21 33 29.94 1014 5 8 0.01 0.25
4:55 pm 16:55 Cloudy 37 3 34 1 87 87 NNE 20 31 29.94 1014 6 10 0.01 0.25
5:15 pm 17:15 Cloudy 37 3 34 1 87 87 NNE 18 30 29.97 1015 7 11 0.00 0.00
5:35 pm 17:35 Cloudy 37 3 34 1 87 87 NE 17 28 29.97 1015 5 8 0.00 0.00
5:55 pm 17:55 Cloudy 37 3 34 1 87 87 NE 16 26 30.00 1016 3 5 0.00 0.00
6:15 pm 18:15 Cloudy 37 3 34 1 87 87 NE 18 30 30.00 1016 3 5 0.00 0.00
6:35 pm 18:35 Cloudy 37 3 34 1 87 87 NNE 16 26 30.03 1017 3 4 0.00 0.00
6:55 pm 18:55 Cloudy 37 3 34 1 87 87 NNE 14 22 30.03 1017 3 4 0.00 0.00
7:15 pm 19:15 Cloudy 37 3 34 1 87 87 NNE 18 30 30.00 1016 5 8 0.00 0.00
7:35 pm 19:35 Cloudy 37 3 34 1 87 87 NNE 14 22 30.03 1017 3 5 0.00 0.00
7:55 pm 19:55 Cloudy 37 3 34 1 87 87 NNE 17 28 30.03 1017 5 8 0.00 0.00
8:15 pm 20:15 Cloudy 37 3 34 1 87 87 NNE 17 28 30.03 1017 9 14 0.00 0.00
8:35 pm 20:35 Cloudy 37 3 34 1 87 87 NNE 15 24 30.03 1017 10 16 0.00 0.00
8:55 pm 20:55 Cloudy 37 3 34 1 87 87 NNE 13 20 30.06 1018 10 16 0.00 0.00
9:15 pm 21:15 Cloudy 37 3 34 1 87 87 NNE 13 20 30.09 1019 10 16 0.00 0.00
9:35 pm 21:35 Cloudy 37 3 34 1 87 87 NNE 10 17 30.09 1019 10 16 0.00 0.00
9:55 pm 21:55 Cloudy 37 3 34 1 87 87 NNE 10 17 30.12 1020 10 16 0.00 0.00
10:15 pm 22:15 Cloudy 37 3 34 1 87 87 NNE 10 17 30.12 1020 10 16 0.00 0.00
10:35 pm 22:35 Cloudy 37 3 34 1 87 87 N 8 13 30.15 1021 10 16 0.00 0.00
10:55 pm 22:55 Cloudy 37 3 34 1 87 87 N 10 17 30.15 1021 10 16 0.00 0.00
11:15 pm 23:15 Cloudy 37 3 34 1 87 87 N 13 20 30.12 1020 10 16 0.00 0.00
11:35 pm 23:35 Cloudy 39 4 34 1 81 81 N 10 17 30.15 1021 10 16 0.00 0.00
11:55 pm 23:55 Cloudy 39 4 34 1 81 81 N 10 17 30.15 1021 10 16 0.00 0.00

Powered by AerisWeather